This is the latest recevied weather packets stored in our database for station/object N5PLO-10. If no packets are shown the sender has not sent any weather packets the latest 10 day(s).
| Time | Temp. | Humidity | Pressure | Rain* | Wind** | Luminosity | Snow |
|---|---|---|---|---|---|---|---|
| 1777479732 | 28.89° C | 78% | 1018.8 hPa | 0 mm | - | 222 W/m² | - |
| 1777479430 | 28.89° C | 78% | 1018.8 hPa | 0 mm | - | 205 W/m² | - |
| 1777479126 | 28.89° C | 78% | 1018.7 hPa | 0 mm | - | 177 W/m² | - |
| 1777478823 | 28.89° C | 78% | 1018.5 hPa | 0 mm | - | 164 W/m² | - |
| 1777478514 | 28.89° C | 78% | 1018.5 hPa | 0 mm | - | 190 W/m² | - |
| 1777478211 | 28.89° C | 77% | 1018.4 hPa | 0 mm | - | 176 W/m² | - |
| 1777477907 | 28.89° C | 77% | 1018.3 hPa | 0 mm | - | 159 W/m² | - |
| 1777477602 | 29.44° C | 77% | 1018.1 hPa | 0 mm | - | 172 W/m² | - |
| 1777477299 | 29.44° C | 78% | 1017.7 hPa | 0 mm | - | 229 W/m² | - |
| 1777476996 | 28.89° C | 79% | 1017.6 hPa | 0 mm | - | 276 W/m² | - |
| 1777476694 | 28.89° C | 78% | 1017.8 hPa | 0 mm | - | 239 W/m² | - |
| 1777476390 | 28.89° C | 79% | 1017.4 hPa | 0 mm | - | 197 W/m² | - |
| 1777476087 | 28.89° C | 79% | 1017.3 hPa | 0 mm | - | 200 W/m² | - |
| 1777475787 | 28.89° C | 79% | 1017.1 hPa | 0 mm | - | 202 W/m² | - |
| 1777475484 | 28.33° C | 80% | 1017.1 hPa | 0 mm | - | 187 W/m² | - |
| 1777475180 | 28.33° C | 80% | 1017.2 hPa | 0 mm | - | 190 W/m² | - |
| 1777474876 | 28.33° C | 80% | 1017 hPa | 0 mm | - | 189 W/m² | - |
| 1777474571 | 28.33° C | 80% | 1017.1 hPa | 0 mm | - | 231 W/m² | - |
| 1777474269 | 27.78° C | 81% | 1017 hPa | 0 mm | - | 209 W/m² | - |
| 1777473966 | 27.78° C | 82% | 1016.6 hPa | 0 mm | - | 194 W/m² | - |
| 1777473664 | 27.78° C | 82% | 1016.7 hPa | 0 mm | - | 173 W/m² | - |
| 1777473359 | 27.78° C | 83% | 1016.7 hPa | 0 mm | - | 169 W/m² | - |
| 1777473055 | 27.78° C | 82% | 1016.6 hPa | 0 mm | - | 153 W/m² | - |
| 1777472751 | 27.78° C | 83% | 1016.6 hPa | 0 mm | - | 166 W/m² | - |
| 1777472448 | 27.78° C | 84% | 1016.4 hPa | 0 mm | - | 204 W/m² | - |
* Rain latest hour (hover to see other rain measurements)
** Current wind speed in m/s (hover to see current wind gust speed)